Location: Unspecified
(51.6250°N, 0.8230°E)
Time: 11:04:57
(UTC+01:00)

CZ-3 Stage 3 - Pass Details

Date: 09 August 2020
Orbit: 426 x 34763 km, 31.1° (Epoch: 22 September)

Event Time Altitude Azimuth Distance (km) Brightness Sun altitude
Rises 03:30:29 0° 177° (S) 10,239 7.8 -15.3°
Reaches altitude 10° 03:38:10 10° 167° (SSE) 11,368 8.1 -14.6°
Maximum altitude 10:00:51 65° 163° (SSE) 31,457 11.7 39.2°
Drops below altitude 10° 12:47:27 10° 131° (SE) 9,817 8.7 53.9°
Sets 12:52:09 0° 128° (SE) 9,479 8.4 54.0°
